FOX-1A (AO-85) (40967 NORAD) Tracking and Keplerian Element Data

This shows tracking and keplerian element data for the satellite.

Feedback or suggestion? Click here.




ElementValue
Catalog40967
NameFOX-1A (AO-85)
Epoch Orbit365
Epoch Day160.15015234
Epoch Year2024
RAAN43.2242
Inclination64.7794
Eccentricity0.0189321
Argument of Perigee306.7042
Mean Anonmoly51.68
Mean Motion14.82191428
Decay Rate5.13E-05
L11 40967U 15058D 24160.15015234 .00005130 00000+0 48482-3 0 9996
L22 40967 64.7794 43.2242 0189321 306.7042 51.6800 14.82191428 3652



Live tracking and technical data element details for FOX-1A (AO-85) (NORAD 40967). FOX-1A (AO-85) can be tracked NOW for your location showing map with azimuth and elevation plus other details from your city location.







IsCatalogInMostPopularTable: catalog: 40967, numindb: 845
Update: records affected: 1



GetName: 40967 FOX-1A (AO-85)

Hit Count: updated at: Tue, 17 Sep 2024 11:42:44 GMT